Location: Corralito
(10.2667°N, 66.9500°W)
Time: 03:11:03
(UTC+00:00)

Haruka - Pass Details

Date: 08 December 2023
Orbit: 529 x 21178 km, 31.2° (Epoch: 21 February)

Event Time Altitude Azimuth Distance (km) Brightness Sun altitude
Rises 07:51:10 0° 225° (SW) 8,811 8.2 -38.0°
Reaches altitude 10° 08:01:07 10° 212° (SSW) 5,045 7.0 -35.7°
Maximum altitude 08:08:38 20° 168° (SSE) 2,365 5.7 -34.0°
Drops below altitude 10° 08:12:15 10° 119° (ESE) 2,242 6.2 -33.2°
Sets 08:14:24 0° 97° (E) 2,822 7.0 -32.7°
